contact:dominique.lefevre@mio.osupytheas.fr, maurice.libes@osupytheas.fr, didier.mallarino@osupytheas.fr
Project:EMSO http://www.emso-fr.org/EMSO-France
Depth: 2436.0 m
Title:EMSO Ligure Ouest : Data MII capteur MICROCAT
DateTime_Computer,Latitude,Longitude,Temperature,Conductivity,Pressure,DateTime_Instrument
DateTime_Computer,Latitude,Longitude,degC,S m-1,dbar,DateTime_Instrument
2021-09-28T00:02:23Z,42.805,6.029,13.2990,4.60008,2470.427,2021-9-28T02:03:45Z
2021-09-28T00:05:27Z,42.805,6.029,13.2993,4.60009,2470.39,2021-9-28T02:06:49Z
2021-09-28T00:08:30Z,42.805,6.029,13.2993,4.60008,2470.404,2021-9-28T02:09:52Z
2021-09-28T00:11:33Z,42.805,6.029,13.2989,4.60009,2470.39,2021-9-28T02:12:55Z
2021-09-28T00:14:36Z,42.805,6.029,13.2992,4.60009,2470.39,2021-9-28T02:15:58Z
2021-09-28T00:17:39Z,42.805,6.029,13.2990,4.60008,2470.376,2021-9-28T02:19:01Z
2021-09-28T00:20:42Z,42.805,6.029,13.2991,4.60007,2470.39,2021-9-28T02:22:04Z
2021-09-28T00:23:45Z,42.805,6.029,13.2991,4.60008,2470.38,2021-9-28T02:25:07Z
2021-09-28T00:26:48Z,42.805,6.029,13.2993,4.60006,2470.357,2021-9-28T02:28:10Z
2021-09-28T00:29:51Z,42.805,6.029,13.2989,4.60009,2470.38,2021-9-28T02:31:14Z
2021-09-28T00:32:55Z,42.805,6.029,13.2991,4.60009,2470.413,2021-9-28T02:34:17Z
2021-09-28T00:35:58Z,42.805,6.029,13.2992,4.60009,2470.404,2021-9-28T02:37:20Z
2021-09-28T00:39:01Z,42.805,6.029,13.2991,4.60007,2470.39,2021-9-28T02:40:23Z
2021-09-28T00:42:04Z,42.805,6.029,13.2990,4.60006,2470.427,2021-9-28T02:43:26Z
2021-09-28T00:45:07Z,42.805,6.029,13.2991,4.60005,2470.39,2021-9-28T02:46:29Z
2021-09-28T00:48:10Z,42.805,6.029,13.2993,4.60007,2470.39,2021-9-28T02:49:32Z
2021-09-28T00:51:13Z,42.805,6.029,13.2991,4.60009,2470.343,2021-9-28T02:52:35Z
2021-09-28T00:54:17Z,42.805,6.029,13.2993,4.60008,2470.366,2021-9-28T02:55:39Z
2021-09-28T00:57:20Z,42.805,6.029,13.2989,4.60009,2470.38,2021-9-28T02:58:42Z
2021-09-28T01:00:23Z,42.805,6.029,13.2990,4.60008,2470.38,2021-9-28T03:01:45Z
2021-09-28T01:03:26Z,42.805,6.029,13.2990,4.60007,2470.39,2021-9-28T03:04:48Z
2021-09-28T01:06:29Z,42.805,6.029,13.2991,4.60007,2470.39,2021-9-28T03:07:51Z
2021-09-28T01:09:32Z,42.805,6.029,13.2991,4.60008,2470.39,2021-9-28T03:10:54Z
2021-09-28T01:12:35Z,42.805,6.029,13.2990,4.60010,2470.39,2021-9-28T03:13:57Z
2021-09-28T01:15:38Z,42.805,6.029,13.2991,4.60007,2470.404,2021-9-28T03:17:00Z
2021-09-28T01:18:41Z,42.805,6.029,13.2991,4.60008,2470.39,2021-9-28T03:20:04Z
2021-09-28T01:21:45Z,42.805,6.029,13.2990,4.60009,2470.38,2021-9-28T03:23:07Z
2021-09-28T01:24:48Z,42.805,6.029,13.2991,4.60007,2470.366,2021-9-28T03:26:10Z
2021-09-28T01:27:51Z,42.805,6.029,13.2988,4.60008,2470.38,2021-9-28T03:29:13Z
2021-09-28T01:30:54Z,42.805,6.029,13.2990,4.60008,2470.38,2021-9-28T03:32:16Z
2021-09-28T01:33:57Z,42.805,6.029,13.2993,4.60006,2470.39,2021-9-28T03:35:19Z
2021-09-28T01:37:00Z,42.805,6.029,13.2990,4.60008,2470.39,2021-9-28T03:38:22Z
2021-09-28T01:40:03Z,42.805,6.029,13.2991,4.60008,2470.38,2021-9-28T03:41:25Z
2021-09-28T01:43:06Z,42.805,6.029,13.2992,4.60007,2470.366,2021-9-28T03:44:28Z
2021-09-28T01:46:10Z,42.805,6.029,13.2993,4.60009,2470.38,2021-9-28T03:47:32Z
2021-09-28T01:49:13Z,42.805,6.029,13.2993,4.60008,2470.38,2021-9-28T03:50:35Z
2021-09-28T01:52:16Z,42.805,6.029,13.2993,4.60011,2470.39,2021-9-28T03:53:38Z
2021-09-28T01:55:19Z,42.805,6.029,13.2992,4.60008,2470.39,2021-9-28T03:56:41Z
2021-09-28T01:58:22Z,42.805,6.029,13.2992,4.60008,2470.343,2021-9-28T03:59:44Z
2021-09-28T02:01:25Z,42.805,6.029,13.2992,4.60010,2470.343,2021-9-28T04:02:47Z
2021-09-28T02:04:28Z,42.805,6.029,13.2992,4.60009,2470.38,2021-9-28T04:05:50Z
2021-09-28T02:07:31Z,42.805,6.029,13.2990,4.60010,2470.366,2021-9-28T04:08:53Z
2021-09-28T02:10:35Z,42.805,6.029,13.2991,4.60009,2470.366,2021-9-28T04:11:57Z
2021-09-28T02:13:38Z,42.805,6.029,13.2992,4.60009,2470.357,2021-9-28T04:15:00Z
2021-09-28T02:16:41Z,42.805,6.029,13.2993,4.60009,2470.38,2021-9-28T04:18:03Z
2021-09-28T02:19:44Z,42.805,6.029,13.2992,4.60007,2470.366,2021-9-28T04:21:06Z
2021-09-28T02:22:47Z,42.805,6.029,13.2991,4.60008,2470.357,2021-9-28T04:24:09Z
2021-09-28T02:25:50Z,42.805,6.029,13.2991,4.60006,2470.32,2021-9-28T04:27:12Z
2021-09-28T02:28:53Z,42.805,6.029,13.2993,4.60009,2470.38,2021-9-28T04:30:15Z
2021-09-28T02:31:56Z,42.805,6.029,13.2991,4.60008,2470.38,2021-9-28T04:33:18Z
2021-09-28T02:35:00Z,42.805,6.029,13.2990,4.60007,2470.38,2021-9-28T04:36:22Z
2021-09-28T02:38:03Z,42.805,6.029,13.2991,4.60009,2470.343,2021-9-28T04:39:25Z
2021-09-28T02:41:06Z,42.805,6.029,13.2995,4.60008,2470.357,2021-9-28T04:42:28Z
2021-09-28T02:44:09Z,42.805,6.029,13.2991,4.60009,2470.357,2021-9-28T04:45:31Z
2021-09-28T02:47:12Z,42.805,6.029,13.2990,4.60008,2470.38,2021-9-28T04:48:34Z
2021-09-28T02:50:15Z,42.805,6.029,13.2990,4.60007,2470.334,2021-9-28T04:51:37Z
2021-09-28T02:53:18Z,42.805,6.029,13.2991,4.60007,2470.33,2021-9-28T04:54:40Z
2021-09-28T02:56:21Z,42.805,6.029,13.2995,4.60007,2470.334,2021-9-28T04:57:43Z
2021-09-28T02:59:25Z,42.805,6.029,13.2994,4.60009,2470.357,2021-9-28T05:00:47Z
2021-09-28T03:02:28Z,42.805,6.029,13.2990,4.60008,2470.32,2021-9-28T05:03:50Z
2021-09-28T03:05:31Z,42.805,6.029,13.2990,4.60006,2470.343,2021-9-28T05:06:53Z
2021-09-28T03:08:34Z,42.805,6.029,13.2990,4.60008,2470.334,2021-9-28T05:09:56Z
2021-09-28T03:11:37Z,42.805,6.029,13.2991,4.60008,2470.38,2021-9-28T05:12:59Z
2021-09-28T03:14:40Z,42.805,6.029,13.2993,4.60009,2470.32,2021-9-28T05:16:02Z
2021-09-28T03:17:43Z,42.805,6.029,13.2992,4.60007,2470.32,2021-9-28T05:19:05Z
2021-09-28T03:20:46Z,42.805,6.029,13.2990,4.60009,2470.343,2021-9-28T05:22:08Z
2021-09-28T03:23:50Z,42.805,6.029,13.2991,4.60007,2470.343,2021-9-28T05:25:12Z
2021-09-28T03:26:53Z,42.805,6.029,13.2993,4.60007,2470.357,2021-9-28T05:28:15Z
2021-09-28T03:29:56Z,42.805,6.029,13.2993,4.60008,2470.357,2021-9-28T05:31:18Z
2021-09-28T03:32:59Z,42.805,6.029,13.2993,4.60009,2470.343,2021-9-28T05:34:21Z
2021-09-28T03:36:02Z,42.805,6.029,13.2992,4.60006,2470.343,2021-9-28T05:37:24Z
2021-09-28T03:39:05Z,42.805,6.029,13.2990,4.60005,2470.32,2021-9-28T05:40:27Z
2021-09-28T03:42:08Z,42.805,6.029,13.2990,4.60007,2470.273,2021-9-28T05:43:30Z
2021-09-28T03:45:11Z,42.805,6.029,13.2990,4.60007,2470.32,2021-9-28T05:46:33Z
2021-09-28T03:48:14Z,42.805,6.029,13.2988,4.60006,2470.343,2021-9-28T05:49:37Z
2021-09-28T03:51:18Z,42.805,6.029,13.2992,4.60005,2470.31,2021-9-28T05:52:40Z
2021-09-28T03:54:21Z,42.805,6.029,13.2988,4.60006,2470.334,2021-9-28T05:55:43Z
2021-09-28T03:57:24Z,42.805,6.029,13.2991,4.60007,2470.32,2021-9-28T05:58:46Z
2021-09-28T04:00:27Z,42.805,6.029,13.2991,4.60008,2470.32,2021-9-28T06:01:49Z
2021-09-28T04:03:30Z,42.805,6.029,13.2991,4.60009,2470.334,2021-9-28T06:04:52Z
2021-09-28T04:06:33Z,42.805,6.029,13.2990,4.60006,2470.297,2021-9-28T06:07:55Z
2021-09-28T04:09:36Z,42.805,6.029,13.2991,4.60006,2470.357,2021-9-28T06:10:58Z
2021-09-28T04:12:39Z,42.805,6.029,13.2988,4.60006,2470.334,2021-9-28T06:14:02Z
2021-09-28T04:15:43Z,42.805,6.029,13.2988,4.60008,2470.32,2021-9-28T06:17:05Z
2021-09-28T04:18:46Z,42.805,6.029,13.2989,4.60005,2470.343,2021-9-28T06:20:08Z
2021-09-28T04:21:49Z,42.805,6.029,13.2991,4.60006,2470.32,2021-9-28T06:23:11Z
2021-09-28T04:24:52Z,42.805,6.029,13.2988,4.60009,2470.31,2021-9-28T06:26:14Z
2021-09-28T04:27:55Z,42.805,6.029,13.2989,4.60006,2470.32,2021-9-28T06:29:17Z
2021-09-28T04:30:58Z,42.805,6.029,13.2990,4.60008,2470.32,2021-9-28T06:32:20Z
2021-09-28T04:34:01Z,42.805,6.029,13.2991,4.60006,2470.334,2021-9-28T06:35:23Z
2021-09-28T04:37:04Z,42.805,6.029,13.2986,4.60006,2470.32,2021-9-28T06:38:26Z
2021-09-28T04:40:08Z,42.805,6.029,13.2988,4.60008,2470.32,2021-9-28T06:41:30Z
2021-09-28T04:43:11Z,42.805,6.029,13.2988,4.60004,2470.343,2021-9-28T06:44:33Z
2021-09-28T04:46:14Z,42.805,6.029,13.2988,4.60005,2470.334,2021-9-28T06:47:36Z
2021-09-28T04:49:17Z,42.805,6.029,13.2990,4.60009,2470.297,2021-9-28T06:50:39Z
2021-09-28T04:52:20Z,42.805,6.029,13.2992,4.60004,2470.343,2021-9-28T06:53:42Z
2021-09-28T04:55:23Z,42.805,6.029,13.2991,4.60005,2470.32,2021-9-28T06:56:45Z
2021-09-28T04:58:26Z,42.805,6.029,13.2989,4.60005,2470.334,2021-9-28T06:59:48Z
2021-09-28T05:01:29Z,42.805,6.029,13.2987,4.60007,2470.334,2021-9-28T07:02:51Z
2021-09-28T05:04:33Z,42.805,6.029,13.2990,4.60007,2470.32,2021-9-28T07:05:55Z
2021-09-28T05:07:36Z,42.805,6.029,13.2986,4.60006,2470.334,2021-9-28T07:08:58Z
2021-09-28T05:10:39Z,42.805,6.029,13.2991,4.60005,2470.32,2021-9-28T07:12:01Z
2021-09-28T05:13:42Z,42.805,6.029,13.2993,4.60005,2470.334,2021-9-28T07:15:04Z
2021-09-28T05:16:45Z,42.805,6.029,13.2991,4.60004,2470.297,2021-9-28T07:18:07Z
2021-09-28T05:19:48Z,42.805,6.029,13.2990,4.60006,2470.297,2021-9-28T07:21:10Z
2021-09-28T05:22:51Z,42.805,6.029,13.2986,4.60003,2470.32,2021-9-28T07:24:13Z
2021-09-28T05:25:54Z,42.805,6.029,13.2989,4.60009,2470.334,2021-9-28T07:27:16Z
2021-09-28T05:28:57Z,42.805,6.029,13.2989,4.60005,2470.334,2021-9-28T07:30:20Z
2021-09-28T05:32:01Z,42.805,6.029,13.2988,4.60005,2470.343,2021-9-28T07:33:23Z
2021-09-28T05:35:04Z,42.805,6.029,13.2987,4.60006,2470.32,2021-9-28T07:36:26Z
2021-09-28T05:38:07Z,42.805,6.029,13.2988,4.60004,2470.32,2021-9-28T07:39:29Z
2021-09-28T05:41:10Z,42.805,6.029,13.2990,4.60006,2470.334,2021-9-28T07:42:32Z
2021-09-28T05:44:13Z,42.805,6.029,13.2991,4.60003,2470.343,2021-9-28T07:45:35Z
2021-09-28T05:47:16Z,42.805,6.029,13.2988,4.60009,2470.297,2021-9-28T07:48:38Z
2021-09-28T05:50:19Z,42.805,6.029,13.2990,4.60007,2470.273,2021-9-28T07:51:41Z
2021-09-28T05:53:22Z,42.805,6.029,13.2995,4.60005,2470.32,2021-9-28T07:54:45Z
2021-09-28T05:56:26Z,42.805,6.029,13.2987,4.60007,2470.31,2021-9-28T07:57:48Z
2021-09-28T05:59:29Z,42.805,6.029,13.2993,4.60007,2470.273,2021-9-28T08:00:51Z
2021-09-28T06:02:32Z,42.805,6.029,13.2990,4.60007,2470.357,2021-9-28T08:03:54Z
2021-09-28T06:05:35Z,42.805,6.029,13.2988,4.60006,2470.32,2021-9-28T08:06:57Z
2021-09-28T06:08:38Z,42.805,6.029,13.2989,4.60006,2470.334,2021-9-28T08:10:00Z
2021-09-28T06:11:41Z,42.805,6.029,13.2989,4.60006,2470.31,2021-9-28T08:13:03Z
2021-09-28T06:14:44Z,42.805,6.029,13.2990,4.60007,2470.334,2021-9-28T08:16:06Z
2021-09-28T06:17:47Z,42.805,6.029,13.2992,4.60006,2470.334,2021-9-28T08:19:09Z
2021-09-28T06:20:51Z,42.805,6.029,13.2988,4.60011,2470.343,2021-9-28T08:22:13Z
2021-09-28T06:23:54Z,42.805,6.029,13.2989,4.60009,2470.31,2021-9-28T08:25:16Z
2021-09-28T06:26:57Z,42.805,6.029,13.2987,4.60006,2470.32,2021-9-28T08:28:19Z
2021-09-28T06:30:00Z,42.805,6.029,13.2992,4.60006,2470.32,2021-9-28T08:31:22Z
2021-09-28T06:33:03Z,42.805,6.029,13.2988,4.60007,2470.32,2021-9-28T08:34:25Z
2021-09-28T06:36:06Z,42.805,6.029,13.2989,4.60006,2470.334,2021-9-28T08:37:28Z
2021-09-28T06:39:09Z,42.805,6.029,13.2989,4.60006,2470.32,2021-9-28T08:40:31Z
2021-09-28T06:42:12Z,42.805,6.029,13.2990,4.60006,2470.32,2021-9-28T08:43:34Z
2021-09-28T06:45:16Z,42.805,6.029,13.2990,4.60006,2470.31,2021-9-28T08:46:38Z
2021-09-28T06:48:19Z,42.805,6.029,13.2991,4.60007,2470.32,2021-9-28T08:49:41Z
2021-09-28T06:51:22Z,42.805,6.029,13.2989,4.60006,2470.32,2021-9-28T08:52:44Z
2021-09-28T06:54:25Z,42.805,6.029,13.2987,4.60006,2470.297,2021-9-28T08:55:47Z
2021-09-28T06:57:28Z,42.805,6.029,13.2987,4.60005,2470.334,2021-9-28T08:58:50Z
2021-09-28T07:00:31Z,42.805,6.029,13.2986,4.60004,2470.32,2021-9-28T09:01:53Z
2021-09-28T07:03:34Z,42.805,6.029,13.2986,4.60006,2470.32,2021-9-28T09:04:56Z
2021-09-28T07:06:37Z,42.805,6.029,13.2988,4.60005,2470.334,2021-9-28T09:07:59Z
2021-09-28T07:09:41Z,42.805,6.029,13.2985,4.60005,2470.334,2021-9-28T09:11:03Z
2021-09-28T07:12:44Z,42.805,6.029,13.2988,4.60005,2470.32,2021-9-28T09:14:06Z
2021-09-28T07:15:47Z,42.805,6.029,13.2988,4.60005,2470.32,2021-9-28T09:17:09Z
2021-09-28T07:18:50Z,42.805,6.029,13.2988,4.60007,2470.366,2021-9-28T09:20:12Z
2021-09-28T07:21:53Z,42.805,6.029,13.2990,4.60004,2470.31,2021-9-28T09:23:15Z
2021-09-28T07:24:56Z,42.805,6.029,13.2987,4.60006,2470.357,2021-9-28T09:26:18Z
2021-09-28T07:27:59Z,42.805,6.029,13.2993,4.60007,2470.32,2021-9-28T09:29:21Z
2021-09-28T07:31:02Z,42.805,6.029,13.2990,4.60007,2470.343,2021-9-28T09:32:24Z
2021-09-28T07:34:06Z,42.805,6.029,13.2990,4.60004,2470.343,2021-9-28T09:35:28Z
2021-09-28T07:37:09Z,42.805,6.029,13.2991,4.60004,2470.334,2021-9-28T09:38:31Z
2021-09-28T07:40:12Z,42.805,6.029,13.2990,4.60005,2470.343,2021-9-28T09:41:34Z
2021-09-28T07:43:15Z,42.805,6.029,13.2987,4.60003,2470.357,2021-9-28T09:44:37Z
2021-09-28T07:46:18Z,42.805,6.029,13.2990,4.60004,2470.366,2021-9-28T09:47:40Z
2021-09-28T07:49:21Z,42.805,6.029,13.2990,4.60004,2470.343,2021-9-28T09:50:43Z
2021-09-28T07:52:24Z,42.805,6.029,13.2987,4.60003,2470.357,2021-9-28T09:53:46Z
2021-09-28T07:55:27Z,42.805,6.029,13.2988,4.60006,2470.357,2021-9-28T09:56:49Z
2021-09-28T07:58:30Z,42.805,6.029,13.2986,4.60005,2470.343,2021-9-28T09:59:53Z
2021-09-28T08:01:34Z,42.805,6.029,13.2991,4.60004,2470.371,2021-9-28T10:02:56Z
2021-09-28T08:04:37Z,42.805,6.029,13.2987,4.60005,2470.39,2021-9-28T10:05:59Z
2021-09-28T08:07:40Z,42.805,6.029,13.2993,4.60007,2470.417,2021-9-28T10:09:02Z
2021-09-28T08:10:43Z,42.805,6.029,13.2990,4.60006,2470.366,2021-9-28T10:12:05Z
2021-09-28T08:13:46Z,42.805,6.029,13.2986,4.60004,2470.32,2021-9-28T10:15:08Z
2021-09-28T08:16:49Z,42.805,6.029,13.2988,4.60004,2470.39,2021-9-28T10:18:11Z
2021-09-28T08:19:52Z,42.805,6.029,13.2988,4.60003,2470.39,2021-9-28T10:21:14Z
2021-09-28T08:22:56Z,42.805,6.029,13.2989,4.60004,2470.404,2021-9-28T10:24:18Z
2021-09-28T08:25:59Z,42.805,6.029,13.2986,4.60004,2470.366,2021-9-28T10:27:21Z
2021-09-28T08:29:02Z,42.805,6.029,13.2989,4.60004,2470.39,2021-9-28T10:30:24Z
2021-09-28T08:32:05Z,42.805,6.029,13.2987,4.60004,2470.38,2021-9-28T10:33:27Z
2021-09-28T08:35:08Z,42.805,6.029,13.2986,4.60003,2470.39,2021-9-28T10:36:30Z
2021-09-28T08:38:11Z,42.805,6.029,13.2986,4.60003,2470.366,2021-9-28T10:39:33Z
2021-09-28T08:41:14Z,42.805,6.029,13.2984,4.60004,2470.366,2021-9-28T10:42:36Z
2021-09-28T08:44:17Z,42.805,6.029,13.2986,4.60006,2470.39,2021-9-28T10:45:39Z
2021-09-28T08:47:21Z,42.805,6.029,13.2990,4.60006,2470.366,2021-9-28T10:48:43Z
2021-09-28T08:50:24Z,42.805,6.029,13.2989,4.60007,2470.413,2021-9-28T10:51:46Z
2021-09-28T08:53:27Z,42.805,6.029,13.2988,4.60004,2470.404,2021-9-28T10:54:49Z
2021-09-28T08:56:30Z,42.805,6.029,13.2990,4.60004,2470.437,2021-9-28T10:57:52Z
2021-09-28T08:59:33Z,42.805,6.029,13.2985,4.60006,2470.427,2021-9-28T11:00:55Z
2021-09-28T09:02:36Z,42.805,6.029,13.2989,4.60004,2470.39,2021-9-28T11:03:58Z
2021-09-28T09:05:39Z,42.805,6.029,13.2990,4.60005,2470.45,2021-9-28T11:07:01Z
2021-09-28T09:08:42Z,42.805,6.029,13.2989,4.60005,2470.427,2021-9-28T11:10:04Z
2021-09-28T09:11:46Z,42.805,6.029,13.2987,4.60006,2470.413,2021-9-28T11:13:08Z
2021-09-28T09:14:49Z,42.805,6.029,13.2988,4.60003,2470.404,2021-9-28T11:16:11Z
2021-09-28T09:17:52Z,42.805,6.029,13.2992,4.60005,2470.427,2021-9-28T11:19:14Z
2021-09-28T09:20:55Z,42.805,6.029,13.2988,4.60004,2470.413,2021-9-28T11:22:17Z
2021-09-28T09:23:58Z,42.805,6.029,13.2992,4.60004,2470.413,2021-9-28T11:25:20Z
2021-09-28T09:27:01Z,42.805,6.029,13.2986,4.60004,2470.46,2021-9-28T11:28:23Z
2021-09-28T09:30:04Z,42.805,6.029,13.2986,4.60005,2470.413,2021-9-28T11:31:26Z
2021-09-28T09:33:07Z,42.805,6.029,13.2988,4.60005,2470.437,2021-9-28T11:34:29Z
2021-09-28T09:36:11Z,42.805,6.029,13.2986,4.60005,2470.45,2021-9-28T11:37:33Z
2021-09-28T09:39:14Z,42.805,6.029,13.2990,4.60005,2470.427,2021-9-28T11:40:36Z
2021-09-28T09:42:17Z,42.805,6.029,13.2988,4.60004,2470.437,2021-9-28T11:43:39Z
2021-09-28T09:45:20Z,42.805,6.029,13.2991,4.60004,2470.45,2021-9-28T11:46:42Z
2021-09-28T09:48:23Z,42.805,6.029,13.2987,4.60005,2470.413,2021-9-28T11:49:45Z
2021-09-28T09:51:26Z,42.805,6.029,13.2987,4.60005,2470.427,2021-9-28T11:52:48Z
2021-09-28T09:54:29Z,42.805,6.029,13.2990,4.60004,2470.427,2021-9-28T11:55:51Z
2021-09-28T09:57:32Z,42.805,6.029,13.2988,4.60004,2470.45,2021-9-28T11:58:55Z
2021-09-28T10:00:36Z,42.805,6.029,13.2989,4.60004,2470.46,2021-9-28T12:01:58Z
2021-09-28T10:03:39Z,42.805,6.029,13.2991,4.60006,2470.437,2021-9-28T12:05:01Z
2021-09-28T10:06:42Z,42.805,6.029,13.2988,4.60004,2470.45,2021-9-28T12:08:04Z
2021-09-28T10:09:45Z,42.805,6.029,13.2986,4.60004,2470.437,2021-9-28T12:11:07Z
2021-09-28T10:12:48Z,42.805,6.029,13.2988,4.60005,2470.45,2021-9-28T12:14:10Z
2021-09-28T10:15:51Z,42.805,6.029,13.2990,4.60006,2470.413,2021-9-28T12:17:13Z
2021-09-28T10:18:54Z,42.805,6.029,13.2987,4.60004,2470.413,2021-9-28T12:20:16Z
2021-09-28T10:21:57Z,42.805,6.029,13.2990,4.60006,2470.437,2021-9-28T12:23:20Z
2021-09-28T10:25:01Z,42.805,6.029,13.2987,4.60005,2470.427,2021-9-28T12:26:23Z
2021-09-28T10:28:04Z,42.805,6.029,13.2991,4.60005,2470.437,2021-9-28T12:29:26Z
2021-09-28T10:31:07Z,42.805,6.029,13.2987,4.60006,2470.413,2021-9-28T12:32:29Z
2021-09-28T10:34:10Z,42.805,6.029,13.2990,4.60005,2470.437,2021-9-28T12:35:32Z
2021-09-28T10:37:13Z,42.805,6.029,13.2986,4.60006,2470.437,2021-9-28T12:38:35Z
2021-09-28T10:40:16Z,42.805,6.029,13.2990,4.60005,2470.45,2021-9-28T12:41:38Z
2021-09-28T10:43:19Z,42.805,6.029,13.2990,4.60005,2470.437,2021-9-28T12:44:41Z
2021-09-28T10:46:22Z,42.805,6.029,13.2990,4.60008,2470.437,2021-9-28T12:47:45Z
2021-09-28T10:49:26Z,42.805,6.029,13.2987,4.60006,2470.437,2021-9-28T12:50:48Z
2021-09-28T10:52:29Z,42.805,6.029,13.2991,4.60005,2470.45,2021-9-28T12:53:51Z
2021-09-28T10:55:32Z,42.805,6.029,13.2990,4.60008,2470.46,2021-9-28T12:56:54Z
2021-09-28T10:58:35Z,42.805,6.029,13.2993,4.60006,2470.413,2021-9-28T12:59:57Z
2021-09-28T11:01:38Z,42.805,6.029,13.2990,4.60004,2470.437,2021-9-28T13:03:00Z
2021-09-28T11:04:41Z,42.805,6.029,13.2983,4.60005,2470.45,2021-9-28T13:06:03Z
2021-09-28T11:07:44Z,42.805,6.029,13.2990,4.60006,2470.474,2021-9-28T13:09:06Z
2021-09-28T11:10:47Z,42.805,6.029,13.2985,4.60005,2470.46,2021-9-28T13:12:10Z
2021-09-28T11:13:51Z,42.805,6.029,13.2989,4.60005,2470.45,2021-9-28T13:15:13Z
2021-09-28T11:16:54Z,42.805,6.029,13.2987,4.60004,2470.46,2021-9-28T13:18:16Z
2021-09-28T11:19:57Z,42.805,6.029,13.2986,4.60005,2470.437,2021-9-28T13:21:19Z
2021-09-28T11:23:00Z,42.805,6.029,13.2986,4.60005,2470.45,2021-9-28T13:24:22Z
2021-09-28T11:26:03Z,42.805,6.029,13.2992,4.60003,2470.437,2021-9-28T13:27:25Z
2021-09-28T11:29:06Z,42.805,6.029,13.2990,4.60005,2470.413,2021-9-28T13:30:28Z
2021-09-28T11:32:09Z,42.805,6.029,13.2990,4.60007,2470.483,2021-9-28T13:33:31Z
2021-09-28T11:35:13Z,42.805,6.029,13.2987,4.60006,2470.474,2021-9-28T13:36:35Z
2021-09-28T11:38:16Z,42.805,6.029,13.2991,4.60005,2470.46,2021-9-28T13:39:38Z
2021-09-28T11:41:19Z,42.805,6.029,13.2990,4.60006,2470.46,2021-9-28T13:42:41Z
2021-09-28T11:44:22Z,42.805,6.029,13.2987,4.60008,2470.45,2021-9-28T13:45:44Z
2021-09-28T11:47:25Z,42.805,6.029,13.2988,4.60005,2470.437,2021-9-28T13:48:47Z
2021-09-28T11:50:28Z,42.805,6.029,13.2990,4.60006,2470.45,2021-9-28T13:51:50Z
2021-09-28T11:53:31Z,42.805,6.029,13.2990,4.60007,2470.437,2021-9-28T13:54:53Z
2021-09-28T11:56:34Z,42.805,6.029,13.2988,4.60007,2470.474,2021-9-28T13:57:57Z
2021-09-28T11:59:38Z,42.805,6.029,13.2988,4.60006,2470.437,2021-9-28T14:01:00Z
2021-09-28T12:02:41Z,42.805,6.029,13.2990,4.60005,2470.46,2021-9-28T14:04:03Z
2021-09-28T12:05:44Z,42.805,6.029,13.2990,4.60007,2470.45,2021-9-28T14:07:06Z
2021-09-28T12:08:47Z,42.805,6.029,13.2989,4.60007,2470.46,2021-9-28T14:10:09Z
2021-09-28T12:11:50Z,42.805,6.029,13.2989,4.60006,2470.437,2021-9-28T14:13:12Z
2021-09-28T12:14:53Z,42.805,6.029,13.2992,4.60005,2470.427,2021-9-28T14:16:15Z
2021-09-28T12:17:56Z,42.805,6.029,13.2985,4.60006,2470.46,2021-9-28T14:19:18Z
2021-09-28T12:20:59Z,42.805,6.029,13.2985,4.60007,2470.437,2021-9-28T14:22:21Z
2021-09-28T12:24:03Z,42.805,6.029,13.2986,4.60007,2470.45,2021-9-28T14:25:25Z
2021-09-28T12:27:06Z,42.805,6.029,13.2991,4.60006,2470.45,2021-9-28T14:28:28Z
2021-09-28T12:30:09Z,42.805,6.029,13.2989,4.60006,2470.437,2021-9-28T14:31:31Z
2021-09-28T12:33:12Z,42.805,6.029,13.2992,4.60006,2470.437,2021-9-28T14:34:34Z
2021-09-28T12:36:15Z,42.805,6.029,13.2990,4.60005,2470.413,2021-9-28T14:37:37Z
2021-09-28T12:39:18Z,42.805,6.029,13.2992,4.60005,2470.474,2021-9-28T14:40:40Z
2021-09-28T12:42:21Z,42.805,6.029,13.2989,4.60006,2470.437,2021-9-28T14:43:43Z
2021-09-28T12:45:24Z,42.805,6.029,13.2990,4.60006,2470.46,2021-9-28T14:46:47Z
2021-09-28T12:48:28Z,42.805,6.029,13.2990,4.60008,2470.427,2021-9-28T14:49:50Z
2021-09-28T12:51:31Z,42.805,6.029,13.2990,4.60006,2470.413,2021-9-28T14:52:53Z
2021-09-28T12:54:34Z,42.805,6.029,13.2988,4.60006,2470.437,2021-9-28T14:55:56Z
2021-09-28T12:57:37Z,42.805,6.029,13.2991,4.60006,2470.45,2021-9-28T14:58:59Z
2021-09-28T13:00:40Z,42.805,6.029,13.2988,4.60008,2470.39,2021-9-28T15:02:02Z
2021-09-28T13:03:43Z,42.805,6.029,13.2987,4.60007,2470.437,2021-9-28T15:05:05Z
2021-09-28T13:06:46Z,42.805,6.029,13.2992,4.60005,2470.437,2021-9-28T15:08:08Z
2021-09-28T13:09:49Z,42.805,6.029,13.2988,4.60006,2470.46,2021-9-28T15:11:12Z
2021-09-28T13:12:53Z,42.805,6.029,13.2983,4.60006,2470.437,2021-9-28T15:14:15Z
2021-09-28T13:15:56Z,42.805,6.029,13.2986,4.60007,2470.46,2021-9-28T15:17:18Z
2021-09-28T13:18:59Z,42.805,6.029,13.2991,4.60005,2470.413,2021-9-28T15:20:21Z
2021-09-28T13:22:02Z,42.805,6.029,13.2988,4.60008,2470.437,2021-9-28T15:23:24Z
2021-09-28T13:25:05Z,42.805,6.029,13.2988,4.60006,2470.413,2021-9-28T15:26:27Z
2021-09-28T13:28:08Z,42.805,6.029,13.2990,4.60005,2470.427,2021-9-28T15:29:30Z
2021-09-28T13:31:11Z,42.805,6.029,13.2986,4.60004,2470.437,2021-9-28T15:32:33Z
2021-09-28T13:34:14Z,42.805,6.029,13.2988,4.60004,2470.45,2021-9-28T15:35:37Z
2021-09-28T13:37:18Z,42.805,6.029,13.2989,4.60004,2470.413,2021-9-28T15:38:40Z
2021-09-28T13:40:21Z,42.805,6.029,13.2984,4.60004,2470.39,2021-9-28T15:41:43Z
2021-09-28T13:43:24Z,42.805,6.029,13.2990,4.60004,2470.45,2021-9-28T15:44:46Z
2021-09-28T13:46:27Z,42.805,6.029,13.2989,4.60005,2470.45,2021-9-28T15:47:49Z
2021-09-28T13:49:30Z,42.805,6.029,13.2986,4.60006,2470.45,2021-9-28T15:50:52Z
2021-09-28T13:52:33Z,42.805,6.029,13.2986,4.60004,2470.45,2021-9-28T15:53:55Z
2021-09-28T13:55:36Z,42.805,6.029,13.2991,4.60004,2470.437,2021-9-28T15:56:58Z
2021-09-28T13:58:40Z,42.805,6.029,13.2989,4.60003,2470.413,2021-9-28T16:00:02Z
2021-09-28T14:01:43Z,42.805,6.029,13.2985,4.60004,2470.437,2021-9-28T16:03:05Z
2021-09-28T14:04:46Z,42.805,6.029,13.2989,4.60003,2470.413,2021-9-28T16:06:08Z
2021-09-28T14:07:49Z,42.805,6.029,13.2988,4.60004,2470.413,2021-9-28T16:09:11Z
2021-09-28T14:10:52Z,42.805,6.029,13.2986,4.60002,2470.413,2021-9-28T16:12:14Z
2021-09-28T14:13:55Z,42.805,6.029,13.2983,4.60003,2470.413,2021-9-28T16:15:17Z
2021-09-28T14:16:58Z,42.805,6.029,13.2989,4.60003,2470.474,2021-9-28T16:18:20Z
2021-09-28T14:20:01Z,42.805,6.029,13.2986,4.60003,2470.437,2021-9-28T16:21:24Z
2021-09-28T14:23:05Z,42.805,6.029,13.2989,4.60004,2470.45,2021-9-28T16:24:27Z
2021-09-28T14:26:08Z,42.805,6.029,13.2988,4.60002,2470.427,2021-9-28T16:27:30Z
2021-09-28T14:29:11Z,42.805,6.029,13.2990,4.60003,2470.437,2021-9-28T16:30:33Z
2021-09-28T14:32:14Z,42.805,6.029,13.2989,4.60003,2470.45,2021-9-28T16:33:36Z
2021-09-28T14:35:17Z,42.805,6.029,13.2991,4.60003,2470.45,2021-9-28T16:36:39Z
2021-09-28T14:38:20Z,42.805,6.029,13.2991,4.60004,2470.437,2021-9-28T16:39:42Z
2021-09-28T14:41:23Z,42.805,6.029,13.2984,4.60003,2470.437,2021-9-28T16:42:45Z
2021-09-28T14:44:26Z,42.805,6.029,13.2986,4.60003,2470.413,2021-9-28T16:45:49Z
2021-09-28T14:47:30Z,42.805,6.029,13.2987,4.60005,2470.413,2021-9-28T16:48:52Z
2021-09-28T14:50:33Z,42.805,6.029,13.2987,4.60003,2470.413,2021-9-28T16:51:55Z
2021-09-28T14:53:36Z,42.805,6.029,13.2990,4.60003,2470.413,2021-9-28T16:54:58Z
2021-09-28T14:56:39Z,42.805,6.029,13.2985,4.60003,2470.413,2021-9-28T16:58:01Z
2021-09-28T14:59:42Z,42.805,6.029,13.2986,4.60003,2470.38,2021-9-28T17:01:04Z
2021-09-28T15:02:45Z,42.805,6.029,13.2989,4.60003,2470.413,2021-9-28T17:04:07Z
2021-09-28T15:05:48Z,42.805,6.029,13.2988,4.60002,2470.413,2021-9-28T17:07:10Z
2021-09-28T15:08:51Z,42.805,6.029,13.2985,4.60003,2470.39,2021-9-28T17:10:14Z
2021-09-28T15:11:55Z,42.805,6.029,13.2987,4.60002,2470.45,2021-9-28T17:13:17Z
2021-09-28T15:14:58Z,42.805,6.029,13.2986,4.60001,2470.413,2021-9-28T17:16:20Z